Terug naar catalogus

FENGYUN 1C DEB

ActiefSSO
NORAD 31349·DEBRIS·🇨🇳 China

Gelanceerd May 10, 1999 vanaf Taiyuan Satellite Launch Center

Loading…

Volgende Passages (komende 24 uur)

TLE

VerouderdSource: Space-Track

Epoch: Aug 27, 2026, 21:46 UTC

1 31349U 99025BRD 26239.90714995  .00001246  00000-0  77652-3 0  9994
2 31349  99.2579 280.0313 0068782 249.4090 109.9689 14.05691680665637

Volg FENGYUN 1C DEB in realtime met AllMySat

Download on the App Store